Vorticity
9 9 4 -12 -4 -5 19 15 8 0 12 -3 6 5 5 3 5 6 1 0 5 11 4 7 8 5 6 7 5 7 7 7 5 5 6 6 6 6 6 5 4 5 4 4 4 5 5 5 6
7 6 7 15 9 -4 13 13 1 2 2 5 6 5 3 5 1 8 4 0 4 2 4 3 8 5 6 6 6 5 6 8 7 4 5 5 5 6 6 6 5 5 6 5 6 6 6 7 4
4 7 4 1 4 2 18 2 5 6 5 3 0 2 4 5 4 5 6 3 3 3 1 3 -5 5 4 6 6 3 4 7 8 5 4 3 4 5 5 5 6 6 5 6 6 7 5 5 5
6 -5 -0 -1 8 13 3 8 2 1 1 5 6 5 3 3 5 6 5 3 4 6 6 4 6 0 5 5 6 3 3 4 5 6 6 5 6 5 7 5 5 5 7 7 7 3 5 0 3
1 7 14 7 6 1 4 10 6 4 7 5 4 5 3 5 5 5 6 4 2 5 9 16 4 7 -3 2 6 5 5 4 6 5 5 5 6 6 6 6 4 5 7 5 4 4 3 4 3
14 12 13 12 10 15 5 0 4 6 8 7 7 8 5 2 4 7 6 7 5 5 6 3 4 8 2 1 5 6 6 5 6 6 7 6 5 5 5 6 5 6 6 6 2 6 7 8 4
8 10 11 13 13 20 12 17 16 5 0 1 4 4 5 4 2 5 8 6 9 5 7 6 9 0 -2 8 9 5 5 3 2 3 3 3 3 5 6 8 8 6 6 6 6 6 4 4 4
2 7 5 10 10 15 10 8 13 11 10 9 10 9 10 16 6 5 2 4 6 3 5 4 5 2 0 9 4 7 3 5 4 5 7 10 8 6 7 8 6 7 6 5 3 2 3 6 5
9 9 13 7 5 8 6 9 9 8 8 5 8 7 7 6 10 5 3 3 3 4 3 5 8 9 4 0 2 3 3 3 3 4 6 7 4 4 4 3 4 5 3 1 0 2 4 5 10
3 6 3 3 1 5 8 7 4 6 10 6 8 9 9 7 9 10 7 6 6 7 7 8 7 7 0 7 12 -3 -10 5 4 5 5 4 4 5 4 4 5 5 5 7 6 6 7 6 7
-13 16 6 2 1 4 5 5 7 5 5 6 7 8 6 6 5 6 6 7 7 6 7 9 7 9 8 6 2 30 17 13 4 4 4 4 4 5 6 7 5 6 5 9 7 4 7 4 2
11 17 5 7 2 1 9 3 6 5 6 9 6 7 7 9 9 8 8 6 7 8 7 7 6 6 6 6 11 14 33 11 4 4 4 4 5 5 6 5 6 5 6 4 6 7 4 2 4
8 16 16 12 13 6 4 4 5 7 8 7 9 6 3 4 6 7 9 7 7 8 8 9 8 7 6 7 9 11 22 4 -4 2 4 3 4 5 6 7 6 4 6 6 7 5 3 4 3
-4 -3 16 10 7 12 6 2 13 -2 12 8 2 11 11 6 5 4 3 3 2 2 1 2 6 9 8 4 8 7 1 12 13 -2 5 5 3 5 5 5 5 7 8 7 5 4 2 3 7
5 3 2 10 -8 1 23 6 2 0 -0 1 10 13 18 10 7 5 3 3 2 1 1 1 3 5 8 9 6 9 7 6 12 21 11 4 4 4 4 4 8 4 5 6 5 4 2 4 12
6 10 -0 14 -3 11 9 14 9 9 -2 12 16 5 12 12 11 9 4 4 4 3 2 3 4 8 7 8 8 6 13 0 12 19 9 3 3 4 5 3 4 3 4 7 7 4 3 12 9
1 4 0 3 12 3 8 1 5 15 -2 29 -7 -1 15 18 16 17 9 5 4 3 5 10 13 13 10 9 8 7 11 10 4 36 3 6 3 4 4 4 4 2 5 8 8 5 4 11 11
11 -2 3 6 1 5 6 3 1 2 15 -16 18 18 -1 -2 9 13 13 3 15 11 14 16 15 15 10 8 10 9 4 14 7 4 24 1 3 5 -2 4 5 3 3 6 5 4 6 8 10
-2 4 7 6 7 1 2 -0 1 3 -14 3 16 12 3 3 8 11 9 14 9 10 7 7 9 8 10 9 11 11 6 11 9 -1 9 18 -1 1 1 6 4 4 3 5 4 4 8 8 9
7 7 4 3 -1 4 1 7 3 3 4 4 10 23 13 25 18 12 13 6 5 9 0 5 8 9 8 7 9 14 12 8 12 6 6 11 16 3 1 4 5 4 3 7 4 6 6 11 6
-4 3 -0 0 9 0 5 -0 -2 1 5 1 8 6 20 4 1 9 12 13 8 6 8 5 8 7 6 7 12 11 9 11 9 11 4 9 17 17 16 3 3 3 1 6 4 7 6 13 8
11 -1 4 12 4 11 5 11 12 1 7 -4 3 5 21 27 15 10 22 8 11 7 10 6 7 6 5 7 10 15 9 13 9 8 6 6 5 9 16 1 3 5 1 4 6 10 8 15 8
9 9 1 1 9 16 13 5 6 7 2 0 12 -8 15 19 13 7 11 6 6 2 6 6 8 5 6 11 9 15 9 14 14 11 9 1 3 20 4 9 -2 3 5 4 7 6 8 12 3
2 14 10 6 12 10 3 8 -0 3 5 28 13 20 14 6 13 19 16 6 13 18 4 5 8 9 7 8 13 13 11 15 12 9 11 6 4 8 4 17 14 5 6 8 9 3 11 8 2
16 2 6 2 7 2 10 3 7 13 -2 25 21 15 10 -1 2 9 15 15 7 14 4 3 7 7 5 4 10 10 11 14 11 11 14 8 4 8 9 19 21 4 8 6 8 9 10 5 11
6 1 5 15 7 13 15 10 11 6 3 13 6 8 1 11 -4 1 14 19 -1 28 23 14 10 10 7 5 6 8 12 13 10 7 16 14 -2 6 11 4 50 11 10 6 7 11 6 6 9
6 11 3 11 16 -4 1 5 6 7 0 -11 13 12 14 18 18 24 16 13 13 14 11 9 7 9 8 7 7 7 5 12 10 14 5 3 11 8 1 13 3 6 6 9 8 8 8 9 5
3 2 8 3 1 0 16 2 8 12 22 -0 5 23 7 -3 7 12 14 19 14 6 9 7 7 9 7 6 7 10 10 5 13 9 8 8 8 8 8 12 16 14 -1 7 8 9 10 8 3
7 3 9 -1 4 17 11 15 11 6 14 7 2 14 19 15 8 9 15 16 11 13 9 8 9 7 7 7 9 14 17 15 20 9 6 6 14 6 21 15 7 6 6 3 11 9 8 6 6
13 1 -1 20 13 14 18 -0 9 -9 10 10 -4 4 11 6 5 6 8 16 12 11 10 10 8 9 8 6 14 21 16 24 23 12 8 7 14 4 31 -4 23 4 10 6 9 9 6 7 7
Height
5896 5898 5901 5903 5907 5907 5907 5910 5912 5913 5914 5915 5916 5917 5918 5918 5919 5923 5922 5923 5923 5923 5924 5924 5924 5925 5926 5926 5927 5928 5928 5927 5927 5928 5928 5929 5930 5930 5930 5931 5931 5931 5930 5930 5929 5928 5926 5926 5927
5899 5901 5903 5905 5907 5908 5910 5912 5914 5915 5916 5916 5917 5917 5919 5919 5920 5922 5923 5925 5926 5925 5925 5925 5926 5926 5927 5927 5927 5929 5929 5930 5930 5931 5931 5931 5932 5932 5933 5933 5933 5933 5932 5932 5932 5930 5931 5930 5929
5901 5903 5905 5907 5908 5909 5910 5912 5914 5916 5917 5918 5920 5920 5920 5922 5922 5923 5924 5925 5927 5927 5927 5926 5926 5927 5927 5928 5928 5929 5930 5931 5932 5933 5933 5933 5934 5935 5936 5935 5935 5935 5935 5934 5934 5934 5934 5933 5931
5902 5905 5907 5908 5909 5910 5911 5912 5914 5916 5918 5920 5920 5922 5923 5922 5923 5924 5925 5926 5926 5928 5927 5926 5927 5928 5928 5930 5930 5930 5931 5933 5934 5935 5935 5935 5935 5937 5938 5938 5937 5937 5936 5936 5936 5936 5936 5935 5934
5903 5905 5906 5908 5909 5911 5912 5914 5915 5916 5918 5920 5921 5922 5923 5924 5924 5925 5926 5927 5927 5928 5928 5928 5928 5929 5930 5931 5931 5930 5931 5932 5934 5935 5937 5937 5937 5938 5939 5940 5940 5938 5938 5938 5937 5937 5937 5936 5935
5906 5906 5907 5908 5910 5911 5913 5914 5916 5917 5918 5919 5921 5923 5923 5924 5926 5926 5927 5928 5928 5929 5930 5928 5929 5930 5930 5931 5932 5933 5932 5932 5935 5936 5938 5939 5938 5939 5940 5942 5942 5940 5940 5939 5939 5940 5940 5939 5938
5908 5908 5908 5908 5909 5910 5912 5914 5915 5917 5919 5920 5921 5922 5924 5924 5925 5927 5928 5928 5929 5930 5932 5930 5928 5928 5931 5930 5930 5933 5934 5934 5936 5937 5939 5940 5940 5940 5941 5942 5943 5942 5941 5941 5942 5942 5942 5941 5940
5910 5910 5910 5911 5910 5914 5914 5915 5916 5917 5919 5920 5921 5922 5924 5924 5924 5927 5928 5928 5929 5929 5931 5931 5931 5928 5930 5930 5931 5932 5934 5936 5936 5938 5939 5941 5942 5941 5942 5942 5943 5944 5944 5944 5944 5944 5944 5942 5940
5914 5912 5911 5911 5911 5915 5915 5917 5918 5919 5920 5920 5922 5923 5923 5924 5925 5926 5927 5927 5928 5929 5930 5932 5932 5931 5930 5931 5932 5933 5935 5936 5937 5939 5939 5941 5944 5944 5943 5942 5943 5945 5946 5946 5946 5946 5946 5943 5940
5916 5917 5914 5912 5913 5915 5916 5918 5919 5920 5922 5921 5922 5923 5924 5924 5925 5926 5927 5927 5928 5928 5929 5931 5931 5931 5930 5931 5932 5933 5934 5937 5938 5939 5940 5942 5944 5945 5944 5944 5944 5945 5946 5946 5947 5947 5946 5944 5942
5917 5918 5916 5916 5916 5917 5918 5919 5921 5922 5922 5922 5922 5923 5924 5925 5926 5927 5927 5928 5928 5928 5928 5929 5930 5931 5930 5930 5929 5931 5931 5935 5937 5938 5940 5942 5944 5946 5946 5946 5946 5946 5946 5947 5947 5947 5945 5944 5943
5918 5917 5917 5917 5918 5917 5919 5919 5921 5923 5924 5924 5924 5924 5925 5925 5926 5925 5927 5928 5928 5928 5929 5929 5929 5930 5930 5930 5929 5928 5928 5932 5936 5938 5939 5942 5943 5945 5947 5947 5947 5947 5947 5948 5949 5947 5946 5945 5943
5919 5919 5918 5919 5917 5917 5920 5921 5922 5924 5923 5923 5923 5924 5924 5925 5926 5927 5926 5926 5928 5928 5928 5928 5928 5929 5929 5929 5928 5929 5928 5932 5935 5937 5938 5941 5943 5945 5947 5947 5947 5948 5949 5949 5949 5947 5946 5944 5943
5919 5920 5920 5920 5919 5921 5922 5922 5923 5924 5923 5922 5922 5923 5924 5925 5926 5927 5928 5927 5926 5927 5928 5927 5927 5927 5927 5927 5928 5929 5929 5931 5933 5936 5937 5940 5942 5944 5946 5946 5948 5949 5949 5949 5950 5948 5947 5946 5944
5920 5920 5919 5918 5920 5922 5923 5924 5924 5923 5923 5921 5921 5922 5922 5922 5923 5925 5925 5925 5926 5925 5925 5926 5925 5925 5925 5926 5926 5928 5929 5929 5930 5931 5935 5938 5940 5944 5945 5946 5948 5949 5949 5950 5950 5949 5948 5947 5944
5920 5920 5918 5919 5921 5921 5923 5924 5925 5925 5923 5921 5920 5920 5920 5920 5920 5921 5921 5921 5922 5923 5923 5923 5924 5923 5922 5923 5925 5925 5927 5927 5928 5929 5933 5936 5938 5942 5945 5946 5948 5949 5949 5949 5948 5950 5949 5947 5944
5919 5919 5919 5919 5920 5920 5923 5924 5925 5924 5924 5921 5920 5919 5916 5916 5917 5916 5916 5918 5918 5919 5919 5919 5920 5921 5920 5921 5922 5923 5924 5926 5927 5928 5930 5934 5936 5940 5944 5945 5947 5949 5949 5949 5949 5950 5949 5947 5945
5917 5917 5917 5919 5918 5918 5919 5919 5919 5922 5923 5923 5921 5919 5915 5913 5912 5913 5914 5915 5915 5915 5915 5915 5916 5918 5918 5918 5920 5921 5922 5923 5925 5926 5927 5930 5934 5937 5941 5944 5946 5947 5948 5949 5949 5950 5948 5948 5946
5917 5916 5918 5917 5917 5918 5916 5916 5917 5918 5920 5920 5920 5918 5916 5912 5910 5911 5912 5913 5912 5912 5912 5913 5914 5916 5916 5916 5917 5919 5920 5921 5922 5923 5925 5927 5929 5933 5938 5942 5944 5947 5947 5949 5948 5949 5948 5948 5947
5915 5914 5914 5915 5915 5915 5914 5912 5912 5914 5916 5917 5916 5913 5912 5909 5908 5907 5909 5910 5909 5910 5911 5911 5912 5913 5914 5915 5915 5917 5918 5920 5920 5921 5922 5923 5927 5931 5935 5940 5942 5945 5947 5948 5947 5948 5948 5948 5947
5912 5910 5911 5913 5914 5913 5913 5913 5909 5909 5907 5910 5910 5908 5907 5905 5904 5904 5905 5906 5908 5907 5908 5908 5909 5909 5912 5912 5912 5913 5915 5914 5915 5916 5918 5921 5923 5927 5932 5937 5940 5943 5945 5947 5946 5947 5948 5949 5948
5909 5910 5908 5911 5912 5912 5913 5916 5910 5907 5907 5907 5906 5904 5901 5900 5900 5900 5901 5903 5905 5905 5905 5905 5905 5906 5907 5909 5910 5910 5911 5913 5912 5913 5917 5919 5921 5924 5929 5934 5938 5941 5943 5945 5946 5946 5947 5948 5947
5906 5905 5906 5908 5911 5911 5910 5911 5907 5906 5906 5907 5902 5901 5898 5897 5897 5898 5897 5900 5902 5902 5903 5904 5903 5904 5904 5905 5907 5907 5908 5910 5911 5912 5915 5919 5921 5924 5927 5932 5935 5938 5941 5943 5945 5945 5945 5946 5948
5903 5905 5905 5906 5906 5910 5907 5907 5906 5905 5904 5902 5898 5893 5894 5894 5895 5896 5896 5899 5901 5901 5900 5900 5901 5901 5902 5902 5903 5904 5905 5907 5908 5909 5911 5915 5920 5923 5925 5928 5931 5936 5939 5942 5943 5944 5944 5946 5947
5901 5901 5902 5904 5903 5906 5905 5904 5903 5904 5902 5898 5894 5891 5890 5891 5892 5894 5895 5895 5898 5898 5898 5898 5898 5898 5899 5900 5900 5902 5902 5904 5905 5906 5909 5913 5917 5920 5923 5925 5927 5932 5936 5939 5942 5943 5943 5945 5946
5898 5898 5899 5899 5901 5902 5902 5902 5902 5902 5900 5899 5895 5892 5889 5889 5891 5893 5892 5892 5895 5894 5895 5896 5896 5896 5897 5897 5897 5899 5899 5901 5903 5905 5907 5910 5914 5917 5919 5922 5922 5928 5933 5937 5940 5942 5942 5944 5946
5893 5893 5896 5896 5898 5900 5901 5900 5899 5899 5900 5895 5894 5892 5890 5888 5890 5891 5891 5890 5892 5891 5891 5892 5893 5893 5894 5894 5894 5895 5895 5897 5900 5902 5905 5907 5910 5913 5915 5918 5922 5926 5931 5934 5938 5940 5941 5943 5945
5884 5890 5893 5895 5896 5897 5898 5897 5895 5896 5897 5895 5892 5889 5888 5888 5888 5888 5889 5887 5888 5888 5887 5888 5888 5889 5890 5889 5889 5890 5890 5892 5896 5898 5901 5904 5908 5911 5912 5914 5919 5924 5928 5932 5935 5937 5940 5942 5944
5881 5887 5890 5891 5893 5893 5895 5893 5894 5892 5893 5893 5891 5887 5886 5886 5886 5886 5886 5887 5886 5886 5886 5886 5886 5886 5885 5884 5884 5884 5885 5887 5891 5894 5897 5901 5904 5907 5909 5912 5917 5922 5927 5929 5933 5936 5939 5941 5943
5880 5882 5884 5888 5891 5890 5891 5891 5890 5889 5889 5890 5890 5887 5884 5884 5885 5886 5885 5884 5884 5884 5883 5884 5883 5883 5881 5879 5878 5878 5879 5882 5886 5890 5894 5897 5901 5904 5906 5909 5913 5919 5924 5927 5930 5935 5937 5940 5943